Flag for USA

Past Weather in Omaha, Nebraska, USA — Yesterday and Last 2 Weeks

Now
79 °F

Clear.


Feels Like: 83 °F
Forecast: 84 / 72 °F
Wind: 5 mph from Southeast

Location: Millard Airport
Current Time: Aug 12, 2020 at 9:54:03 pm
Latest Report: Aug 12, 2020 at 8:35 pm
Visibility: 10 mi
Pressure29.95 "Hg
Humidity: 80%
Dew Point: 72 °F
Location of OmahaLocation

Past Weather in Omaha — Graph

°F

Omaha Temperature Yesterday

Maximum temperature yesterday: 87 °F (at 4:30 pm)
Minimum temperature yesterday: 64 °F (at 6:55 am)
Average temperature yesterday: 76 °F

High & Low Weather Summary for the Past Weeks

 TemperatureHumidityPressure
High90 °F (Aug 9, 5:15 pm)94% (Aug 10, 5:35 am)30.20 "Hg (Aug 10, 5:35 am)
Low54 °F (Aug 4, 6:15 am)36% (Aug 3, 4:55 pm)29.81 "Hg (Aug 9, 6:55 am)
Average75 °F71%29.99 "Hg
* Reported Jul 28 8:15 pm — Aug 12 8:15 pm, Omaha. Weather by CustomWeather, © 2020

Note: Actual official high and low records may vary slightly from our data, if they occured in-between our weather recording intervals... More about our weather records

Omaha Weather History for the Previous 24 Hours

Scroll right to see more
 ConditionsComfort  
Time TempWeatherWind HumidityBarometerVisibility
8:15 pm
Wed, Aug 12
81 °FSunny.5 mph76%29.96 "Hg10 mi
7:55 pm82 °FSunny.7 mph74%29.95 "Hg10 mi
7:15 pm83 °FSunny.9 mph70%29.96 "Hg10 mi
6:55 pm83 °FSunny.8 mph69%29.96 "Hg10 mi
6:35 pm83 °FSunny.7 mph69%29.96 "Hg10 mi
6:15 pm83 °FSunny.5 mph69%29.95 "Hg10 mi
5:55 pm83 °FSunny.7 mph69%29.96 "Hg10 mi
5:35 pm83 °FSunny.8 mph68%29.96 "Hg10 mi
5:15 pm84 °FSunny.10 mph65%29.95 "Hg10 mi
4:55 pm84 °FSunny.12 mph66%29.95 "Hg10 mi
4:35 pm85 °FSunny.10 mph65%29.95 "Hg10 mi
4:15 pm84 °FSunny.9 mph68%29.95 "Hg10 mi
3:55 pm84 °FSunny.13 mph68%29.95 "Hg10 mi
3:35 pm84 °FSunny.9 mph69%29.96 "Hg10 mi
3:15 pm84 °FScattered clouds.8 mph69%29.96 "Hg10 mi
2:15 pm85 °FSunny.10 mph66%29.97 "Hg10 mi
1:55 pm85 °FSunny.13 mph63%29.97 "Hg10 mi
1:35 pm86 °FSunny.13 mph62%29.97 "Hg10 mi
1:15 pm86 °FScattered clouds.15 mph60%29.97 "Hg10 mi
12:55 pm86 °FScattered clouds.15 mph62%29.97 "Hg10 mi
12:35 pm85 °FScattered clouds.15 mph64%29.97 "Hg10 mi
12:15 pm85 °FSunny.16 mph64%29.97 "Hg10 mi
11:55 am85 °FSunny.15 mph65%29.97 "Hg10 mi
11:35 am83 °FSunny.10 mph70%29.98 "Hg10 mi
11:15 am82 °FScattered clouds.8 mph74%29.98 "Hg10 mi
10:55 am81 °FScattered clouds.10 mph75%29.98 "Hg10 mi
10:35 am79 °FPartly sunny.10 mph79%29.98 "Hg10 mi
10:15 am78 °FOvercast.17 mph80%29.98 "Hg10 mi
9:55 am78 °FLow clouds.12 mph81%29.99 "Hg10 mi
9:35 am77 °FLow clouds.10 mph83%29.99 "Hg10 mi
9:15 am76 °FLow clouds.12 mph85%29.99 "Hg10 mi
8:55 am76 °FLow clouds.10 mph86%30.00 "Hg10 mi
8:35 am75 °FFog.10 mph88%30.01 "Hg5 mi
7:55 am75 °FLow clouds.13 mph89%30.02 "Hg7 mi
7:35 am74 °FLow clouds.9 mph90%30.01 "Hg7 mi
7:15 am74 °FFog.10 mph90%30.01 "Hg5 mi
6:55 am74 °FLow clouds.9 mph90%30.00 "Hg7 mi
6:35 am74 °FLow clouds.6 mph90%29.99 "Hg7 mi
6:15 am74 °FLow clouds.9 mph91%29.97 "Hg7 mi
5:55 am73 °FLow clouds.9 mph90%29.97 "Hg10 mi
5:35 am74 °FPassing clouds.12 mph90%29.96 "Hg10 mi
5:15 am74 °FPassing clouds.5 mph89%29.95 "Hg10 mi
4:55 am74 °FPassing clouds.5 mph90%29.95 "Hg10 mi
4:35 am74 °FPassing clouds.6 mph90%29.95 "Hg10 mi
4:15 am74 °FPassing clouds.7 mph89%29.95 "Hg10 mi
3:55 am74 °FClear.7 mph89%29.95 "Hg10 mi
3:35 am75 °FClear.7 mph89%29.95 "Hg10 mi
3:15 am76 °FClear.6 mph87%29.95 "Hg10 mi
2:35 am76 °FPassing clouds.3 mph87%29.97 "Hg10 mi
2:15 am76 °FClear.No wind87%29.98 "Hg10 mi
1:55 am76 °FClear.3 mph87%29.98 "Hg10 mi
1:35 am76 °FClear.3 mph87%29.98 "Hg10 mi
1:15 am76 °FClear.3 mph87%29.99 "Hg10 mi
12:55 am76 °FClear.5 mph86%29.98 "Hg10 mi
12:35 am77 °FPassing clouds.7 mph85%29.98 "Hg10 mi
12:15 am77 °FClear.5 mph85%30.00 "Hg10 mi
11:55 pm
Tue, Aug 11
77 °FClear.7 mph85%29.99 "Hg10 mi
11:35 pm78 °FClear.8 mph83%29.98 "Hg10 mi
10:55 pm78 °FClear.7 mph82%29.98 "Hg10 mi
10:35 pm79 °FClear.6 mph81%29.97 "Hg10 mi
10:15 pm78 °FClear.7 mph82%29.96 "Hg10 mi
9:55 pm79 °FClear.7 mph80%29.96 "Hg10 mi
9:35 pm80 °FClear.8 mph79%29.95 "Hg10 mi
9:15 pm80 °FClear.6 mph79%29.93 "Hg10 mi
Weather by CustomWeather, © 2020

See weather overview